1358035227359,161.077
1358035287359,161.474
1358035347359,161.495
1358035407359,161.586
1358035467359,161.449
1358035527359,161.528
1358035587359,161.509
1358035647359,161.401
1358035707359,161.357
1358035767359,161.625
1358035827359,161.913
1358035887359,161.630
1358035947359,161.560
1358036007359,161.242
1358036067359,161.495
1358036127359,161.340
1358036187359,161.333
1358036247359,161.322
1358036307359,161.481
1358036367359,161.646
1358036427359,161.273
1358036487359,161.289
1358036547359,161.093
1358036607359,161.233
1358036667359,161.563
1358036727359,161.482
1358036787359,161.441
1358036847359,161.331
1358036907359,161.218
1358036967359,161.277
1358037027359,161.330
1358037087359,161.034
1358037147359,161.508
1358037207359,161.434
1358037267359,161.409
1358037327359,161.423
1358037387359,161.501
1358037447359,161.218
1358037507359,161.383
1358037567359,161.285
1358037627359,161.424
1358037687359,161.491
1358037747359,161.315
1358037807359,161.001
1358037867359,161.414
1358037927359,161.463
1358037987359,161.497
1358038047359,161.357
1358038107359,162.639
1358038167359,163.874
1358038227359,163.595
1358038287359,162.734
1358038347359,162.228
1358038407359,161.796
1358038467359,161.982
1358038527359,161.294
1358038587359,161.603
1358038647359,161.554
1358038707359,161.458
1358038767359,161.391
1358038827369,161.339
1358038887369,160.888
1358038947369,161.420
1358039007369,160.908
1358039067369,161.225
1358039127369,161.062
1358039187369,161.261
1358039247369,160.979
1358039307369,160.911
1358039367369,160.899
1358039427369,160.769
1358039487369,160.752
1358039547369,160.845
1358039607369,160.784
1358039667369,161.003
1358039727369,160.798
1358039787369,160.747
1358039847369,160.743
1358039907369,160.801
1358039967369,161.254
1358040027369,161.171
1358040087369,160.806
1358040147369,161.121
1358040207369,161.156
1358040267369,161.152
1358040327369,161.361
1358040387369,160.884
1358040447369,161.227
1358040507369,161.170
1358040567369,161.105
1358040627369,161.141
1358040687369,160.869
1358040747369,160.982
1358040807369,161.111
1358040867369,161.359
1358040927369,160.691
1358040987369,160.588
1358041047369,160.768
1358041107369,160.838
1358041167369,160.933
1358041227369,160.986
1358041287369,160.964
1358041347369,161.095
1358041407369,161.177
1358041467369,161.097
1358041527369,160.995
1358041587369,161.175
1358041647369,161.241
1358041707369,161.314
1358041767369,161.477
1358041827369,161.391
1358041887369,161.554
1358041947369,161.397
1358042007369,161.351
1358042067369,161.401
1358042127369,161.409
1358042187369,161.787
1358042247369,161.250
1358042307369,161.541
1358042367369,161.459
1358042427380,161.320
1358042487380,161.424
1358042547380,161.412
1358042607380,161.002
1358042667380,161.273
1358042727380,161.546
1358042787380,161.061
1358042847380,161.148
1358042907380,161.113
1358042967380,161.321
1358043027380,161.182
1358043087380,161.142
1358043147380,161.214
1358043207380,161.299
1358043267380,161.088
1358043327380,161.232
1358043387380,161.111
1358043447380,161.348
1358043507380,161.135
1358043567380,161.033
1358043627380,160.653
1358043687380,161.164
1358043747380,161.234
1358043807380,160.939
1358043867380,160.779
1358043927380,161.354
1358043987380,161.326
1358044047380,161.361
1358044107380,161.125
1358044167380,161.368
1358044227380,161.318
1358044287380,161.286
1358044347380,161.628
1358044407380,161.357
1358044467380,161.208
1358044527380,161.251
1358044587380,161.587
1358044647380,161.198
1358044707380,161.708
1358044767380,161.374
1358044827380,161.225
1358044887380,161.468
1358044947380,161.238
1358045007380,161.550
1358045067380,161.328
1358045127380,161.570
1358045187380,161.226
1358045247380,161.087
1358045307380,161.212
1358045367380,161.088
1358045427380,161.586
1358045487380,161.294
1358045547380,161.274
1358045607380,161.331
1358045667380,161.386
1358045727380,161.358
1358045787380,161.432
1358045847380,161.268
1358045907380,161.515
1358045967380,161.455
1358046027390,161.368
1358046087390,161.587
1358046147390,161.305
1358046207390,161.182
1358046267390,161.609
1358046327390,161.462
1358046387390,161.249
1358046447390,161.616
1358046507390,161.325
1358046567390,161.376
1358046627390,161.215
1358046687390,161.349
1358046747390,161.483
1358046807390,161.637
1358046867390,161.703
1358046927390,161.615
1358046987390,161.573
1358047047390,161.823
1358047107390,161.594
1358047167390,161.705
1358047227390,161.653
1358047287390,161.271
1358047347390,161.548
1358047407390,161.820
1358047467390,161.958
1358047527390,161.662
1358047587390,161.633
1358047647390,161.649
1358047707390,161.698
1358047767390,161.492
1358047827390,161.945
1358047887390,161.578
1358047947390,161.581
1358048007390,161.663
1358048067390,161.914
1358048127390,161.841
1358048187390,161.587
1358048247390,161.695
1358048307390,161.527
1358048367390,161.507
1358048427390,161.650
1358048487390,162.139
1358048547390,161.945
1358048607390,161.630
1358048667390,161.655
1358048727390,161.661
1358048787390,161.663
1358048847390,161.598
1358048907390,161.816
1358048967390,161.424
1358049027390,161.496
1358049087390,161.776
1358049147390,161.481
1358049207390,161.739
1358049267390,161.651
1358049327390,161.471
1358049387390,161.415
1358049447390,161.438
1358049507390,161.663
1358049567390,161.729
1358049627401,161.706
1358049687401,161.907
1358049747401,161.819
1358049807401,161.860
1358049867401,161.743
1358049927401,162.046
1358049987401,161.793
1358050047401,162.213
1358050107401,162.300
1358050167401,162.092
1358050227401,161.931
1358050287401,161.911
1358050347401,162.211
1358050407401,162.309
1358050467401,162.444
1358050527401,162.216
1358050587401,162.331
1358050647401,162.346
1358050707401,162.567
1358050767401,162.416
1358050827401,162.439
1358050887401,162.392
1358050947401,162.624
1358051007401,162.150
1358051067401,162.750
1358051127401,162.774
1358051187401,162.490
1358051247401,162.574
1358051307401,162.469
1358051367401,162.763
1358051427401,162.525
1358051487401,162.855
1358051547401,162.712
1358051607401,162.983
1358051667401,162.414
1358051727401,162.574
1358051787401,162.580
1358051847401,162.942
1358051907401,162.931
1358051967401,162.653
1358052027401,162.546
1358052087401,162.841
1358052147401,162.447
1358052207401,162.844
1358052267401,163.103
1358052327401,162.963
1358052387401,162.865
1358052447401,163.157
1358052507401,162.773
1358052567401,162.830
1358052627401,162.803
1358052687401,163.109
1358052747401,163.420
1358052807401,162.940
1358052867401,163.337
1358052927401,162.932
1358052987401,163.190
1358053047401,163.261
1358053107401,163.331
1358053167401,162.989
1358053227411,163.086
1358053287411,163.372
1358053347411,162.863
1358053407411,163.156
1358053467411,162.947
1358053527411,163.151
1358053587411,163.335
1358053647411,162.904
1358053707411,163.503
1358053767411,163.157
1358053827411,163.586
1358053887411,163.164
1358053947411,163.307
1358054007411,163.280
1358054067411,163.156
1358054127411,163.176
1358054187411,163.155
1358054247411,163.129
1358054307411,162.988
1358054367411,163.109
1358054427411,162.985
1358054487411,163.067
1358054547411,162.904
1358054607411,163.274
1358054667411,163.500
1358054727411,163.481
1358054787411,162.953
1358054847411,163.457
1358054907411,163.255
1358054967411,163.751
1358055027411,163.684
1358055087411,163.000
1358055147411,163.319
1358055207411,163.576
1358055267411,163.465
1358055327411,163.403
1358055387411,163.357
1358055447411,163.303
1358055507411,163.327
1358055567411,163.320
1358055627411,163.469
1358055687411,163.416
1358055747411,163.566
1358055807411,163.194
1358055867411,163.583
1358055927411,163.194
1358055987411,163.326
1358056047411,163.535
1358056107411,163.630
1358056167411,163.402
1358056227411,163.592
1358056287411,163.555
1358056347411,163.397
1358056407411,163.409
1358056467411,163.556
1358056527411,163.310
1358056587411,163.737
1358056647411,163.706
1358056707411,163.346
1358056767411,163.490
1358056827422,163.685
1358056887422,163.693
1358056947422,163.744
1358057007422,163.493
1358057067422,163.819
1358057127422,163.568
1358057187422,163.443
1358057247422,163.518
1358057307422,163.256
1358057367422,163.382
1358057427422,163.590
1358057487422,163.353
1358057547422,163.365
1358057607422,163.224
1358057667422,163.224
1358057727422,163.395
1358057787422,163.401
1358057847422,163.195
1358057907422,163.475
1358057967422,163.045
1358058027422,162.677
1358058087422,163.205
1358058147422,163.206
1358058207422,163.254
1358058267422,162.900
1358058327422,163.117
1358058387422,162.908
1358058447422,163.535
1358058507422,162.981
1358058567422,162.527
1358058627422,162.783
1358058687422,162.828
1358058747422,163.155
1358058807422,162.944
1358058867422,162.771
1358058927422,162.859
1358058987422,163.206
1358059047422,162.822
1358059107422,163.101
1358059167422,162.914
1358059227422,162.694
1358059287422,163.197
1358059347422,162.827
1358059407422,162.778
1358059467422,162.854
1358059527422,163.301
1358059587422,162.932
1358059647422,162.941
1358059707422,162.890
1358059767422,162.845
1358059827422,163.346
1358059887422,162.714
1358059947422,163.108
1358060007422,162.848
1358060067422,162.969
1358060127422,163.019
1358060187422,163.140
1358060247422,162.995
1358060307422,163.243
1358060367422,163.177
1358060427433,162.995
1358060487433,163.292
1358060547433,163.157
1358060607433,163.345
1358060667433,163.173
1358060727433,163.184
1358060787433,162.769
1358060847433,162.514
1358060907433,162.737
1358060967433,162.632
1358061027433,162.882
1358061087433,162.803
1358061147433,162.495
1358061207433,162.425
1358061267433,162.792
1358061327433,162.564
1358061387433,162.539
1358061447433,162.734
1358061507433,162.640
1358061567433,162.599
1358061627433,163.020
1358061687433,162.847
1358061747433,162.934
1358061807433,162.437
1358061867433,162.492
1358061927433,162.521
1358061987433,162.321
1358062047433,162.495
1358062107433,162.493
1358062167433,162.061
1358062227433,162.398
1358062287433,162.347
1358062347433,162.601
1358062407433,162.465
1358062467433,162.235
1358062527433,162.141
1358062587433,162.443
1358062647433,162.184
1358062707433,162.440
1358062767433,162.237
1358062827433,162.402
1358062887433,162.626
1358062947433,162.490
1358063007433,162.278
1358063067433,162.503
1358063127433,162.969
1358063187433,162.792
1358063247433,162.948
1358063307433,163.018
1358063367433,163.287
1358063427433,162.993
1358063487433,162.882
1358063547433,162.892
1358063607433,162.900
1358063667433,162.420
1358063727433,162.681
1358063787433,162.610
1358063847433,162.763
1358063907433,162.486
1358063967433,162.681
1358064027445,162.457
1358064087445,162.169
1358064147445,162.835
1358064207445,162.318
1358064267445,162.188
1358064327445,162.550
1358064387445,162.528
1358064447445,162.360
1358064507445,162.668
1358064567445,162.091
1358064627445,162.341
1358064687445,161.974
1358064747445,162.377
1358064807445,162.579
1358064867445,162.376
1358064927445,162.450
1358064987445,163.037
1358065047445,162.708
1358065107445,162.350
1358065167445,162.656
1358065227445,162.624
1358065287445,162.930
1358065347445,162.935
1358065407445,163.175
1358065467445,162.816
1358065527445,162.831
1358065587445,162.980
1358065647445,162.427
1358065707445,162.550
1358065767445,162.700
1358065827445,162.423
1358065887445,162.983
1358065947445,162.803
1358066007445,162.395
1358066067445,162.741
1358066127445,162.539
1358066187445,165.407
1358066247445,166.000
1358066307445,166.080
1358066367445,165.034
1358066427445,163.909
1358066487445,163.383
1358066547445,163.138
1358066607445,162.370
1358066667445,162.183
1358066727445,162.136
1358066787445,162.194
1358066847445,161.890
1358066907445,161.733
1358066967445,161.730
1358067027445,161.733
1358067087445,161.647
1358067147445,161.629
1358067207445,161.849
1358067267445,161.583
1358067327445,161.964
1358067387445,161.746
1358067447445,161.826
1358067507445,161.357
1358067567445,161.675
1358067627456,161.596
1358067687456,161.541
1358067747456,161.297
1358067807456,160.875
1358067867456,161.360
1358067927456,161.357
1358067987456,160.908
1358068047456,161.196
1358068107456,161.228
1358068167456,161.144
1358068227456,161.001
1358068287456,161.167
1358068347456,161.136
1358068407456,161.006
1358068467456,161.053
1358068527456,161.024
1358068587456,161.068
1358068647456,160.960
1358068707456,161.134
1358068767456,161.008
1358068827456,161.371
1358068887456,161.448
1358068947456,161.057
1358069007456,161.027
1358069067456,161.098
1358069127456,161.289
1358069187456,161.312
1358069247456,161.616
1358069307456,161.665
1358069367456,161.573
1358069427456,161.607
1358069487456,161.835
1358069547456,161.845
1358069607456,161.707
1358069667456,162.046
1358069727456,161.925
1358069787456,161.919
1358069847456,161.789
1358069907456,161.890
1358069967456,161.722
1358070027456,161.813
1358070087456,161.629
1358070147456,161.999
1358070207456,161.903
1358070267456,162.006
1358070327456,161.821
1358070387456,162.028
1358070447456,162.312
1358070507456,162.279
1358070567456,161.984
1358070627456,162.347
1358070687456,162.151
1358070747456,162.356
1358070807456,162.260
1358070867456,162.305
1358070927456,162.101
1358070987456,162.163
1358071047456,162.455
1358071107456,162.089
1358071167456,162.208
1358071227467,162.484
1358071287467,162.158
1358071347467,162.334
1358071407467,162.476
1358071467467,162.023
1358071527467,162.336
1358071587467,162.500
1358071647467,162.360
1358071707467,162.391
1358071767467,162.284
1358071827467,162.393
1358071887467,162.127
1358071947467,162.483
1358072007467,162.346
1358072067467,162.549
1358072127467,162.715
1358072187467,162.836
1358072247467,162.376
1358072307467,162.609
1358072367467,162.394
1358072427467,162.302
1358072487467,162.097
1358072547467,162.456
1358072607467,162.285
1358072667467,162.437
1358072727467,162.013
1358072787467,162.502
1358072847467,162.738
1358072907467,162.013
1358072967467,162.479
1358073027467,162.247
1358073087467,162.317
1358073147467,162.114
1358073207467,162.611
1358073267467,162.537
1358073327467,161.728
1358073387467,162.695
1358073447467,162.204
1358073507467,162.608
1358073567467,162.457
1358073627467,162.340
1358073687467,162.336
1358073747467,162.385
1358073807467,162.629
1358073867467,162.457
1358073927467,162.431
1358073987467,162.536
1358074047467,162.374
1358074107467,162.323
1358074167467,161.944
1358074227467,162.204
1358074287467,162.065
1358074347467,161.740
1358074407467,162.075
1358074467467,162.263
1358074527467,162.056
1358074587467,162.041
1358074647467,162.162
1358074707467,162.142
1358074767467,162.170
1358074827479,162.303
1358074887479,161.933
1358074947479,162.068
1358075007479,162.313
1358075067479,162.328
1358075127479,162.059
1358075187479,161.899
1358075247479,161.879
1358075307479,162.084
1358075367479,162.205
1358075427479,161.877
1358075487479,162.299
1358075547479,161.929
1358075607479,161.840
1358075667479,162.317
1358075727479,162.015
1358075787479,162.145
1358075847479,161.960
1358075907479,161.817
1358075967479,161.986
1358076027479,162.226
1358076087479,162.121
1358076147479,162.407
1358076207479,162.174
1358076267479,161.814
1358076327479,162.085
1358076387479,161.818
1358076447479,162.052
1358076507479,161.668
1358076567479,162.197
1358076627479,161.706
1358076687479,161.722
1358076747479,162.097
1358076807479,162.057
1358076867479,161.913
1358076927479,161.825
1358076987479,161.970
1358077047479,161.626
1358077107479,161.839
1358077167479,161.921
1358077227479,161.773
1358077287479,162.413
1358077347479,161.660
1358077407479,162.229
1358077467479,161.898
1358077527479,161.953
1358077587479,161.913
1358077647479,162.155
1358077707479,161.923
1358077767479,161.856
1358077827479,162.067
1358077887479,162.085
1358077947479,161.940
1358078007479,161.972
1358078067479,161.944
1358078127479,161.848
1358078187479,161.909
1358078247479,162.026
1358078307479,162.100
1358078367479,161.814
1358078427491,161.958
1358078487491,162.024
1358078547491,162.220
1358078607491,161.742
1358078667491,162.116
1358078727491,161.848
1358078787491,161.978
1358078847491,161.989
1358078907491,161.911
1358078967491,161.890
1358079027491,161.832
1358079087491,162.113
1358079147491,162.017
1358079207491,161.963
1358079267491,161.564
1358079327491,161.990
1358079387491,161.644
1358079447490,161.681
1358079507490,162.069
1358079567491,161.779
1358079627491,162.076
1358079687491,162.122
1358079747491,162.199
1358079807491,162.099
1358079867491,162.230
1358079927491,161.972
1358079987491,162.575
1358080047491,162.290
1358080107491,161.875
1358080167491,162.368
1358080227491,162.196
1358080287491,162.180
1358080347491,162.087
1358080407491,162.224
1358080467491,162.314
1358080527491,162.243
1358080587491,162.203
1358080647491,162.232
1358080707491,162.351
1358080767491,162.261
1358080827490,162.295
1358080887491,161.809
1358080947491,162.058
1358081007491,162.045
1358081067491,161.791
1358081127491,162.112
1358081187491,162.282
1358081247491,161.971
1358081307491,162.008
1358081367491,162.252
1358081427491,161.735
1358081487491,161.915
1358081547491,162.178
1358081607491,161.767
1358081667491,162.134
1358081727491,162.154
1358081787491,161.861
1358081847491,161.660
1358081907491,161.813
1358081967491,161.738
1358082027502,161.862
1358082087502,161.693
1358082147502,161.909
1358082207502,162.099
1358082267502,162.238
1358082327502,162.271
1358082387502,162.129
1358082447502,162.653
1358082507502,162.279
1358082567502,162.797
1358082627502,162.226
1358082687502,162.083
1358082747502,162.102
1358082807502,162.068
1358082867502,162.169
1358082927502,161.615
1358082987502,162.150
1358083047502,162.173
1358083107502,162.187
1358083167502,162.254
1358083227502,162.050
1358083287502,161.721
1358083347502,161.755
1358083407502,161.983
1358084547502,162.070
1358084607502,158.088
1358084667502,162.504
1358084727502,162.004
1358084787502,162.109
1358084847502,162.393
1358084907502,161.814
1358084967502,162.344
1358085027502,162.107
1358085087502,161.738
1358085147502,162.440
1358085207502,162.169
1358085267502,162.022
1358085327502,162.093
1358085387502,161.887
1358085447502,162.060
1358085507502,162.126
1358085567502,161.932
1358085627514,162.213
1358085687514,161.965
1358085747514,162.346
1358085807514,162.084
1358085867514,162.064
1358085927514,161.948
1358085987514,162.197
1358086047514,161.652
1358086107514,161.720
1358086167514,162.003
1358086227514,162.082
1358086287514,161.808
1358086347514,161.800
1358086407514,162.079
1358086467514,161.817
1358086527514,161.747
1358086587514,161.824
1358086647514,161.847
1358086707514,161.893
1358086767514,161.787
1358086827514,162.098
1358086887514,162.007
1358086947514,161.913
1358087007514,161.649
1358087067514,161.682
1358087127514,161.999
1358087187514,162.105
1358087247514,162.224
1358087307514,162.231
1358087367514,162.020
1358087427514,162.214
1358087487514,162.017
1358087547514,162.162
1358087607514,162.325
1358087667514,162.092
1358087727514,161.865
1358087787514,161.982
1358087847514,162.125
1358087907514,162.002
1358087967514,162.155
1358088027514,161.989
1358088087514,162.236
1358088147514,161.969
1358088207514,162.369
1358088267514,162.110
1358088327514,162.312
1358088387514,162.038
1358088447514,161.772
1358088507514,162.309
1358088567514,162.255
1358088627514,162.038
1358088687514,162.263
1358088747514,161.790
1358088807514,161.935
1358088867514,162.263
1358088927514,162.252
1358088987514,162.031
1358089047514,161.930
1358089107514,162.303
1358089167514,162.320
1358089227525,161.908
1358089287525,161.964
1358089347525,162.152
1358089407525,162.163
1358089467525,162.105
1358089527525,161.737
1358089587525,162.240
1358089647525,161.537
1358089707525,162.197
1358089767525,162.151
1358089827525,162.276
1358089887525,161.921
1358089947525,161.986
1358090007525,162.204
1358090067525,162.341
1358090127525,162.189
1358090187525,162.303
1358090247525,162.381
1358090307525,162.164
1358090367525,162.046
1358090427525,162.506
1358090487525,162.207
1358090547525,162.258
1358090607525,162.153
1358090667525,162.623
1358090727525,162.259
1358090787525,161.881
1358090847525,162.268
1358090907525,162.203
1358090967525,162.373
1358091027525,162.168
1358091087525,162.500
1358091147525,161.797
1358091207525,161.967
1358091267525,162.118
1358091327525,162.556
1358091387525,162.568
1358091447525,162.132
1358091507525,162.479
1358091567525,162.472
1358091627525,162.574
1358091687525,162.564
1358091747525,162.206
1358091807525,162.100
1358091867525,162.310
1358091927525,162.266
1358091987525,162.120
1358092047525,162.273
1358092107525,162.073
1358092167525,162.358
1358092227525,162.396
1358092287525,162.270
1358092347525,162.279
1358092407525,162.779
1358092467525,161.984
1358092527525,162.359
1358092587525,162.622
1358092647525,162.317
1358092707525,162.184
1358092767525,162.331
1358092827537,162.050
1358092887537,161.986
1358092947537,162.090
1358093007537,162.311
1358093067537,162.192
1358093127537,162.230
1358093187537,162.546
1358093247537,161.829
1358093307537,162.627
1358093367537,162.099
1358093427537,161.827
1358093487537,162.130
1358093547537,162.169
1358093607537,161.860
1358093667537,161.955
1358093727537,162.051
1358093787537,162.158
1358093847537,161.945
1358093907537,162.244
1358093967537,161.875
1358094027537,161.789
1358094087537,162.071
1358094147537,161.922
1358094207537,162.088
1358094267537,162.079
1358094327537,162.351
1358094387537,162.150
1358094447537,161.880
1358094507537,162.340
1358094567537,162.325
1358094627537,161.790
1358094687537,162.256
1358094747537,161.835
1358094807537,162.006
1358094867537,161.834
1358094927537,161.493
1358094987537,161.945
1358095047537,162.079
1358095107537,162.010
1358095167537,162.138
1358095227537,162.176
1358095287537,161.749
1358095347537,162.231
1358095407537,161.874
1358095467537,162.158
1358095527537,161.981
1358095587537,161.956
1358095647537,161.798
1358095707537,162.187
1358095767537,161.902
1358095827537,162.207
1358095887537,162.200
1358095947537,161.896
1358096007537,161.882
1358096067537,162.175
1358096127537,162.084
1358096187537,162.383
1358096247537,162.229
1358096307537,162.043
1358096367537,162.420
1358096427548,162.720
1358096487548,162.661
1358096547548,162.477
1358096607548,162.428
1358096667548,162.293
1358096727548,162.445
1358096787548,162.455
1358096847548,162.559
1358096907548,162.314
1358096967548,162.518
1358097027548,162.819
1358097087548,162.430
1358097147548,162.600
1358097207548,162.384
1358097267548,162.688
1358097327548,162.997
1358097387548,162.842
1358097447548,162.396
1358097507548,163.108
1358097567548,162.974
1358097627548,163.005
1358097687548,162.820
1358097747548,162.703
1358097807548,162.471
1358097867548,162.371
1358097927548,162.509
1358097987548,162.423
1358098047548,162.543
1358098107548,162.399
1358098167548,162.384
1358098227548,162.510
1358098287548,162.537
1358098347548,162.349
1358098407548,162.245
1358098467548,162.583
1358098527548,162.343
1358098587548,162.244
1358098647548,162.272
1358098707548,162.669
1358098767548,162.595
1358098827548,162.573
1358098887548,163.258
1358098947548,162.736
1358099007548,162.821
1358099067548,163.049
1358099127548,162.832
1358099187548,162.994
1358099247548,162.576
1358099307548,162.684
1358099367548,162.864
1358099427548,162.773
1358099487548,163.114
1358099547548,162.328
1358099607548,162.750
1358099667548,162.463
1358099727548,162.756
1358099787548,162.645
1358099847548,162.614
1358099907548,162.885
1358099967548,162.495
1358100027559,163.071
1358100087559,163.035
1358100147559,162.692
1358100207559,162.857
1358100267559,162.774
1358100327559,162.582
1358100387559,162.789
1358100447559,163.183
1358100507559,163.005
1358100567559,162.949
1358100627559,163.279
1358100687559,162.943
1358100747559,162.943
1358100807559,163.370
1358100867559,162.910
1358100927559,162.917
1358100987559,162.797
1358101047559,163.218
1358101107559,163.139
1358101167559,163.114
1358101227559,163.355
1358101287559,163.058
1358101347559,163.239
1358101407559,163.347
1358101467559,163.125
1358101527559,163.145
1358101587559,163.277
1358101647559,163.382